,,,PA_Meas_PMT16A,,PR_Meas_QMR101_102,,RH_Meas_QMH101,,SR_Meas_QMS101,,TA_Meas_QMH101,,GenWind,,GenWind,
date,time,status,PA,status,PR,status,RH,status,SR,status,TA,status,DirAvg,status,SpdAvg,
2011-05-29, 00:00:04,VALID,1005.95,VALID,0,INVALID,163.655,VALID,0,VALID,25.2007,VALID,29,VALID,0.267969,
2011-05-29, 00:01:04,VALID,1005.93,VALID,0,INVALID,163.632,VALID,0,VALID,25.2202,VALID,29,VALID,0.157813,
2011-05-29, 00:02:04,VALID,1005.89,VALID,0,INVALID,163.647,VALID,0,VALID,25.1988,VALID,29,VALID,0.0195313,
2011-05-29, 00:03:04,VALID,1005.9,VALID,0,INVALID,163.639,VALID,0,VALID,25.2202,VALID,29,VALID,0.00429688,
2011-05-29, 00:04:04,VALID,1005.89,VALID,0,INVALID,163.624,VALID,0,VALID,25.2611,VALID,29,VALID,0.13125,
2011-05-29, 00:05:04,VALID,1005.86,VALID,0,INVALID,163.655,VALID,0,VALID,25.2592,VALID,29,VALID,0.227344,
2011-05-29, 00:06:04,VALID,1005.85,VALID,0,INVALID,163.617,VALID,0,VALID,25.2786,VALID,29,VALID,0,
2011-05-29, 00:07:04,VALID,1005.84,VALID,0.5,INVALID,163.617,VALID,0,VALID,25.2786,VALID,29,VALID,0.150391,
2011-05-29, 00:08:04,VALID,1005.83,VALID,0,INVALID,163.662,VALID,0,VALID,25.2592,VALID,29,VALID,0,
2011-05-29, 00:09:04,VALID,1005.84,VALID,0,INVALID,163.624,VALID,0,VALID,25.2611,VALID,29,VALID,0,
2011-05-29, 00:10:04,VALID,1005.85,VALID,0,INVALID,163.632,VALID,0,VALID,25.2397,VALID,29,VALID,0.00351562,
2011-05-29, 00:11:04,VALID,1005.82,VALID,0,INVALID,163.639,VALID,0.100563,VALID,25.2202,VALID,29,VALID,0.0183594,
2011-05-29, 00:12:04,VALID,1005.82,VALID,0,INVALID,163.647,VALID,0,VALID,25.2202,VALID,29,VALID,0,
2011-05-29, 00:13:04,VALID,1005.82,VALID,0,INVALID,163.624,VALID,0,VALID,25.2202,VALID,29,VALID,0,
2011-05-29, 00:14:04,VALID,1005.79,VALID,0,INVALID,163.632,VALID,0,VALID,25.2007,VALID,29,VALID,0.0300781,
2011-05-29, 00:15:04,VALID,1005.79,VALID,0,INVALID,163.632,VALID,0,VALID,25.2007,VALID,29,VALID,0.143359,
2011-05-29, 00:16:04,VALID,1005.83,VALID,0,INVALID,163.647,VALID,0,VALID,25.2007,VALID,29,VALID,0.0175781,
2011-05-29, 00:17:04,VALID,1005.85,VALID,0,INVALID,163.632,VALID,0,VALID,25.2202,VALID,29,VALID,0,
2011-05-29, 00:18:04,VALID,1005.88,VALID,0,INVALID,163.655,VALID,0.100563,VALID,25.2397,VALID,29,VALID,0.126563,
2011-05-29, 00:19:04,VALID,1005.89,VALID,0.5,INVALID,163.647,VALID,0,VALID,25.2202,VALID,29,VALID,0.330078,
2011-05-29, 00:20:04,VALID,1005.9,VALID,0,INVALID,163.655,VALID,0,VALID,25.2202,VALID,50,VALID,0.498828,
2011-05-29, 00:21:04,VALID,1005.88,VALID,0,INVALID,163.601,VALID,0,VALID,25.2416,VALID,86,VALID,0.301562,
2011-05-29, 00:22:04,VALID,1005.87,VALID,0,INVALID,163.632,VALID,0,VALID,25.2397,VALID,86,VALID,0.235938,
2011-05-29, 00:23:04,VALID,1005.84,VALID,0,INVALID,163.624,VALID,0,VALID,25.2611,VALID,86,VALID,0.0578125,
2011-05-29, 00:24:04,VALID,1005.85,VALID,0,INVALID,163.632,VALID,0,VALID,25.2397,VALID,86,VALID,0.00117188,
2011-05-29, 00:25:04,VALID,1005.8,VALID,0,INVALID,163.655,VALID,0.100563,VALID,25.2397,VALID,86,VALID,0.0078125,
2011-05-29, 00:26:04,VALID,1005.79,VALID,0,INVALID,163.632,VALID,0,VALID,25.2397,VALID,86,VALID,0,
2011-05-29, 00:27:04,VALID,1005.76,VALID,0,INVALID,163.624,VALID,0,VALID,25.2416,VALID,86,VALID,0.23125,
2011-05-29, 00:28:04,VALID,1005.76,VALID,0.5,INVALID,163.632,VALID,0,VALID,25.2007,VALID,86,VALID,0.158594,
2011-05-29, 00:29:04,VALID,1005.69,VALID,0,INVALID,163.639,VALID,0,VALID,25.2027,VALID,86,VALID,0.255469,
2011-05-29, 00:30:04,VALID,1005.66,VALID,0,INVALID,163.632,VALID,0,VALID,25.2027,VALID,86,VALID,0.309766,
2011-05-29, 00:31:04,VALID,1005.62,VALID,0,INVALID,163.662,VALID,0,VALID,25.2027,VALID,86,VALID,0.329688,
2011-05-29, 00:32:04,VALID,1005.59,VALID,0,INVALID,163.647,VALID,0,VALID,25.2027,VALID,76,VALID,0.461328,
2011-05-29, 00:33:04,VALID,1005.56,VALID,0,INVALID,163.639,VALID,0,VALID,25.2027,VALID,26,VALID,0.435547,
2011-05-29, 00:34:04,VALID,1005.54,VALID,0,INVALID,163.632,VALID,0,VALID,25.1832,VALID,22,VALID,0.367969,
2011-05-29, 00:35:04,VALID,1005.5,VALID,0.5,INVALID,163.624,VALID,0,VALID,25.1832,VALID,22,VALID,0.275781,
2011-05-29, 00:36:04,VALID,1005.49,VALID,0,INVALID,163.624,VALID,0,VALID,25.1637,VALID,22,VALID,0,
2011-05-29, 00:37:04,VALID,1005.48,VALID,0,INVALID,163.655,VALID,0,VALID,25.1442,VALID,22,VALID,0.00078125,
2011-05-29, 00:38:04,VALID,1005.45,VALID,0,INVALID,163.624,VALID,0,VALID,25.1423,VALID,22,VALID,0,
2011-05-29, 00:39:04,VALID,1005.38,VALID,0,INVALID,163.639,VALID,0,VALID,25.2027,VALID,22,VALID,0,
2011-05-29, 00:40:04,VALID,1005.37,VALID,0,INVALID,163.624,VALID,0,VALID,25.2202,VALID,22,VALID,0,
2011-05-29, 00:41:04,VALID,1005.35,VALID,0,INVALID,163.639,VALID,0,VALID,25.2416,VALID,22,VALID,0,
2011-05-29, 00:42:04,VALID,1005.33,VALID,0,INVALID,163.662,VALID,0,VALID,25.2202,VALID,22,VALID,0,
2011-05-29, 00:43:04,VALID,1005.3,VALID,0,INVALID,163.662,VALID,0,VALID,25.2611,VALID,22,VALID,0,
2011-05-29, 00:44:04,VALID,1005.26,VALID,0,INVALID,163.624,VALID,0,VALID,25.2806,VALID,22,VALID,0.178516,
2011-05-29, 00:45:04,VALID,1005.23,VALID,0,INVALID,163.639,VALID,0,VALID,25.2397,VALID,22,VALID,0.344922,
2011-05-29, 00:46:04,VALID,1005.22,VALID,0.5,INVALID,163.624,VALID,0,VALID,25.2397,VALID,22,VALID,0.407422,
2011-05-29, 00:47:04,VALID,1005.19,VALID,0,INVALID,163.632,VALID,0,VALID,25.2611,VALID,22,VALID,0.326172,
2011-05-29, 00:48:04,VALID,1005.18,VALID,0,INVALID,163.617,VALID,0,VALID,25.2202,VALID,22,VALID,0.376172,
2011-05-29, 00:49:04,VALID,1005.16,VALID,0,INVALID,163.647,VALID,0,VALID,25.2007,VALID,22,VALID,0.502344,
2011-05-29, 00:50:04,VALID,1005.15,VALID,0,INVALID,163.647,VALID,0,VALID,25.1832,VALID,22,VALID,0.680078,
2011-05-29, 00:51:04,VALID,1005.14,VALID,0,INVALID,163.662,VALID,0,VALID,25.1618,VALID,22,VALID,0.314063,
2011-05-29, 00:52:04,VALID,1005.15,VALID,0,INVALID,163.624,VALID,0,VALID,25.1637,VALID,22,VALID,0.217187,
2011-05-29, 00:53:04,VALID,1005.13,VALID,0,INVALID,163.632,VALID,0,VALID,25.1442,VALID,22,VALID,0.493359,
2011-05-29, 00:54:04,VALID,1005.13,VALID,0,INVALID,163.639,VALID,0,VALID,25.1229,VALID,22,VALID,0.176563,
2011-05-29, 00:55:04,VALID,1005.15,VALID,0,INVALID,163.624,VALID,0,VALID,25.1229,VALID,22,VALID,0.0207031,
2011-05-29, 00:56:04,VALID,1005.16,VALID,0,INVALID,163.624,VALID,0,VALID,25.1229,VALID,22,VALID,0,
2011-05-29, 00:57:04,VALID,1005.13,VALID,0,INVALID,163.662,VALID,0,VALID,25.1248,VALID,22,VALID,0.0347656,
2011-05-29, 00:58:04,VALID,1005.13,VALID,0,INVALID,163.662,VALID,0,VALID,25.1034,VALID,22,VALID,0,
2011-05-29, 00:59:04,VALID,1005.15,VALID,0,INVALID,163.67,VALID,0,VALID,25.0644,VALID,22,VALID,0,
2011-05-29, 01:00:04,VALID,1005.14,VALID,0,INVALID,163.639,VALID,0,VALID,25.0236,VALID,22,VALID,0,
2011-05-29, 01:01:04,VALID,1005.15,VALID,0.5,INVALID,163.662,VALID,0,VALID,25.0663,VALID,22,VALID,0.0289063,
2011-05-29, 01:02:04,VALID,1005.18,VALID,0,INVALID,163.662,VALID,0,VALID,25.0469,VALID,22,VALID,0.184375,
2011-05-29, 01:03:04,VALID,1005.21,VALID,0,INVALID,163.647,VALID,0,VALID,25.0663,VALID,28,VALID,0.21875,
2011-05-29, 01:04:04,VALID,1005.22,VALID,0,INVALID,163.67,VALID,0,VALID,25.0663,VALID,85,VALID,0.575781,
2011-05-29, 01:05:04,VALID,1005.22,VALID,0,INVALID,163.662,VALID,0,VALID,25.0663,VALID,90,VALID,0.446875,
2011-05-29, 01:06:04,VALID,1005.26,VALID,0,INVALID,163.655,VALID,0,VALID,25.0255,VALID,89,VALID,0.380859,
2011-05-29, 01:07:04,VALID,1005.26,VALID,0,INVALID,163.639,VALID,0,VALID,25.0469,VALID,88,VALID,0.434766,
2011-05-29, 01:08:04,VALID,1005.32,VALID,0,INVALID,163.678,VALID,0,VALID,25.0663,VALID,86,VALID,0.383984,
2011-05-29, 01:09:04,VALID,1005.3,VALID,0,INVALID,163.655,VALID,0,VALID,25.0255,VALID,86,VALID,0.4375,
2011-05-29, 01:10:04,VALID,1005.33,VALID,0,INVALID,163.655,VALID,0,VALID,25.0255,VALID,86,VALID,0.151953,
2011-05-29, 01:11:04,VALID,1005.35,VALID,0.5,INVALID,163.655,VALID,0,VALID,25.045,VALID,86,VALID,0.00820312,
2011-05-29, 01:12:04,VALID,1005.37,VALID,0,INVALID,163.662,VALID,0,VALID,25.0255,VALID,86,VALID,0.117578,
2011-05-29, 01:13:04,VALID,1005.36,VALID,0,INVALID,163.662,VALID,0,VALID,25.006,VALID,86,VALID,0.125,
2011-05-29, 01:14:04,VALID,1005.38,VALID,0,INVALID,163.632,VALID,0,VALID,25.006,VALID,86,VALID,0.116016,
2011-05-29, 01:15:04,VALID,1005.4,VALID,0,INVALID,163.647,VALID,0,VALID,25.006,VALID,86,VALID,0.313672,
2011-05-29, 01:16:04,VALID,1005.39,VALID,0,INVALID,163.67,VALID,0,VALID,24.9866,VALID,86,VALID,0.212891,
2011-05-29, 01:17:04,VALID,1005.44,VALID,0,INVALID,163.655,VALID,0,VALID,24.9866,VALID,86,VALID,0.0832031,
2011-05-29, 01:18:04,VALID,1005.44,VALID,0,INVALID,163.662,VALID,0,VALID,24.9866,VALID,86,VALID,0.150391,
2011-05-29, 01:19:04,VALID,1005.42,VALID,0,INVALID,163.639,VALID,0,VALID,24.9847,VALID,85,VALID,0.223828,
2011-05-29, 01:20:04,VALID,1005.45,VALID,0,INVALID,163.655,VALID,0,VALID,24.9671,VALID,85,VALID,0.491016,
2011-05-29, 01:21:04,VALID,1005.45,VALID,0,INVALID,163.662,VALID,0,VALID,24.9671,VALID,84,VALID,0.463281,
2011-05-29, 01:22:04,VALID,1005.47,VALID,0,INVALID,163.655,VALID,0,VALID,25.0079,VALID,91,VALID,0.779688,
2011-05-29, 01:23:04,VALID,1005.5,VALID,0,INVALID,163.662,VALID,0,VALID,24.9866,VALID,91,VALID,0.326172,
2011-05-29, 01:24:04,VALID,1005.48,VALID,0,INVALID,163.655,VALID,0,VALID,25.0079,VALID,99,VALID,0.603906,
2011-05-29, 01:25:04,VALID,1005.48,VALID,0,INVALID,163.655,VALID,0,VALID,25.006,VALID,87,VALID,0.619922,
2011-05-29, 01:26:04,VALID,1005.5,VALID,0.5,INVALID,163.662,VALID,0,VALID,25.0274,VALID,93,VALID,0.608203,
2011-05-29, 01:27:04,VALID,1005.49,VALID,0,INVALID,163.655,VALID,0,VALID,25.0079,VALID,80,VALID,0.910156,
2011-05-29, 01:28:04,VALID,1005.46,VALID,0,INVALID,163.655,VALID,0,VALID,25.006,VALID,102,VALID,0.594922,
2011-05-29, 01:29:04,VALID,1005.44,VALID,0,INVALID,163.655,VALID,0,VALID,25.006,VALID,104,VALID,0.483594,
2011-05-29, 01:30:04,VALID,1005.44,VALID,0,INVALID,163.655,VALID,0,VALID,25.006,VALID,91,VALID,0.61875,
2011-05-29, 01:31:04,VALID,1005.4,VALID,0,INVALID,163.662,VALID,0,VALID,25.0079,VALID,89,VALID,0.575,
2011-05-29, 01:32:04,VALID,1005.38,VALID,0,INVALID,163.639,VALID,0,VALID,24.9866,VALID,85,VALID,0.188672,
2011-05-29, 01:33:04,VALID,1005.38,VALID,0,INVALID,163.662,VALID,0,VALID,24.9866,VALID,71,VALID,0.271094,
2011-05-29, 01:34:04,VALID,1005.38,VALID,0,INVALID,163.67,VALID,0,VALID,24.9866,VALID,56,VALID,0,
2011-05-29, 01:35:04,VALID,1005.37,VALID,0,INVALID,163.662,VALID,0,VALID,24.9866,VALID,56,VALID,0.0570313,
2011-05-29, 01:36:04,VALID,1005.35,VALID,0,INVALID,163.647,VALID,0,VALID,24.9866,VALID,55,VALID,0.0328125,
2011-05-29, 01:37:04,VALID,1005.36,VALID,0,INVALID,163.647,VALID,0,VALID,24.9866,VALID,55,VALID,0,
2011-05-29, 01:38:04,VALID,1005.32,VALID,0,INVALID,163.67,VALID,0,VALID,24.9866,VALID,55,VALID,0,
2011-05-29, 01:39:04,VALID,1005.33,VALID,0,INVALID,163.632,VALID,0,VALID,24.9652,VALID,55,VALID,0.259766,
2011-05-29, 01:40:04,VALID,1005.31,VALID,0.5,INVALID,163.655,VALID,0,VALID,24.9671,VALID,55,VALID,0,
2011-05-29, 01:41:04,VALID,1005.26,VALID,0,INVALID,163.662,VALID,0,VALID,24.9671,VALID,55,VALID,0.246094,
2011-05-29, 01:42:04,VALID,1005.24,VALID,0,INVALID,163.647,VALID,0,VALID,24.9476,VALID,55,VALID,0.110156,
2011-05-29, 01:43:04,VALID,1005.19,VALID,0,INVALID,163.662,VALID,0,VALID,24.9671,VALID,55,VALID,0,
2011-05-29, 01:44:04,VALID,1005.19,VALID,0,INVALID,163.647,VALID,0,VALID,24.9671,VALID,55,VALID,0.0882813,
2011-05-29, 01:45:04,VALID,1005.19,VALID,0,INVALID,163.647,VALID,0,VALID,24.9671,VALID,55,VALID,0,
2011-05-29, 01:46:04,VALID,1005.18,VALID,0,INVALID,163.662,VALID,0,VALID,24.9476,VALID,60,VALID,0.207813,
2011-05-29, 01:47:04,VALID,1005.16,VALID,0,INVALID,163.647,VALID,0,VALID,24.9476,VALID,60,VALID,0.252344,
2011-05-29, 01:48:04,VALID,1005.21,VALID,0,INVALID,163.678,VALID,0,VALID,24.969,VALID,60,VALID,0.135547,
2011-05-29, 01:49:04,VALID,1005.18,VALID,0,INVALID,163.662,VALID,0,VALID,24.9885,VALID,60,VALID,0,
2011-05-29, 01:50:04,VALID,1005.2,VALID,0,INVALID,163.647,VALID,0,VALID,24.9476,VALID,60,VALID,0,
2011-05-29, 01:51:04,VALID,1005.2,VALID,0,INVALID,163.639,VALID,0,VALID,24.9671,VALID,60,VALID,0.346094,
2011-05-29, 01:52:04,VALID,1005.17,VALID,0,INVALID,163.647,VALID,0,VALID,24.9866,VALID,60,VALID,0.440234,
2011-05-29, 01:53:04,VALID,1005.21,VALID,0,INVALID,163.647,VALID,0,VALID,24.9671,VALID,83,VALID,0.455859,
2011-05-29, 01:54:04,VALID,1005.19,VALID,0,INVALID,163.67,VALID,0,VALID,24.9476,VALID,83,VALID,0.113281,
2011-05-29, 01:55:04,VALID,1005.22,VALID,0,INVALID,163.662,VALID,0,VALID,24.9495,VALID,83,VALID,0.403516,
2011-05-29, 01:56:04,VALID,1005.2,VALID,0,INVALID,163.655,VALID,0.100563,VALID,24.9282,VALID,58,VALID,0.275391,
2011-05-29, 01:57:04,VALID,1005.21,VALID,0,INVALID,163.662,VALID,0,VALID,24.9068,VALID,58,VALID,0.187109,
2011-05-29, 01:58:04,VALID,1005.19,VALID,0,INVALID,163.693,VALID,0,VALID,24.9087,VALID,58,VALID,0.265234,
2011-05-29, 01:59:04,VALID,1005.18,VALID,0,INVALID,163.678,VALID,0,VALID,24.8679,VALID,58,VALID,0.349219,
2011-05-29, 02:00:04,VALID,1005.18,VALID,0,INVALID,163.678,VALID,0,VALID,24.8503,VALID,58,VALID,0.10625,
2011-05-29, 02:01:04,VALID,1005.22,VALID,0,INVALID,163.647,VALID,0,VALID,24.8503,VALID,58,VALID,0.258984,
2011-05-29, 02:02:04,VALID,1005.19,VALID,0,INVALID,163.655,VALID,0,VALID,24.8503,VALID,84,VALID,0.548437,
2011-05-29, 02:03:04,VALID,1005.19,VALID,0,INVALID,163.67,VALID,0,VALID,24.8892,VALID,111,VALID,0.389062,
2011-05-29, 02:04:04,VALID,1005.2,VALID,0,INVALID,163.662,VALID,0,VALID,24.8892,VALID,111,VALID,0.424219,
2011-05-29, 02:05:04,VALID,1005.18,VALID,0,INVALID,163.647,VALID,0,VALID,24.9087,VALID,111,VALID,0.315625,
2011-05-29, 02:06:04,VALID,1005.19,VALID,0,INVALID,163.655,VALID,0,VALID,24.8892,VALID,95,VALID,0.453516,
2011-05-29, 02:07:04,VALID,1005.18,VALID,0,INVALID,163.655,VALID,0,VALID,24.8911,VALID,95,VALID,0.333594,
2011-05-29, 02:08:04,VALID,1005.25,VALID,0,INVALID,163.67,VALID,0,VALID,24.8697,VALID,95,VALID,0.496875,
2011-05-29, 02:09:04,VALID,1005.22,VALID,0,INVALID,163.639,VALID,0,VALID,24.8911,VALID,95,VALID,0.00859375,
2011-05-29, 02:10:04,VALID,1005.23,VALID,0,INVALID,163.67,VALID,0,VALID,24.8503,VALID,95,VALID,0.0253906,
2011-05-29, 02:11:04,VALID,1005.19,VALID,0,INVALID,163.655,VALID,0,VALID,24.8503,VALID,95,VALID,0,
2011-05-29, 02:12:04,VALID,1005.19,VALID,0,INVALID,163.662,VALID,0,VALID,24.8308,VALID,95,VALID,0,
2011-05-29, 02:13:04,VALID,1005.18,VALID,0,INVALID,163.678,VALID,0,VALID,24.8113,VALID,95,VALID,0.126172,
2011-05-29, 02:14:04,VALID,1005.15,VALID,0,INVALID,163.678,VALID,0,VALID,24.8113,VALID,95,VALID,0.00195313,
2011-05-29, 02:15:04,VALID,1005.13,VALID,0,INVALID,163.647,VALID,0,VALID,24.7919,VALID,95,VALID,0,
2011-05-29, 02:16:04,VALID,1005.13,VALID,0,INVALID,163.678,VALID,0,VALID,24.7724,VALID,95,VALID,0,
2011-05-29, 02:17:04,VALID,1005.12,VALID,0,INVALID,163.662,VALID,0,VALID,24.7937,VALID,95,VALID,0,
2011-05-29, 02:18:04,VALID,1005.16,VALID,0,INVALID,163.662,VALID,0.100563,VALID,24.7724,VALID,95,VALID,0.0972656,
2011-05-29, 02:19:04,VALID,1005.15,VALID,0,INVALID,163.662,VALID,0,VALID,24.7316,VALID,95,VALID,0,
2011-05-29, 02:20:04,VALID,1005.15,VALID,0,INVALID,163.685,VALID,0,VALID,24.7529,VALID,95,VALID,0.000390625,
2011-05-29, 02:21:04,VALID,1005.16,VALID,0,INVALID,163.678,VALID,0,VALID,24.7335,VALID,91,VALID,0.142969,
2011-05-29, 02:22:04,VALID,1005.14,VALID,0,INVALID,163.678,VALID,0,VALID,24.7316,VALID,90,VALID,0.320313,
2011-05-29, 02:23:04,VALID,1005.17,VALID,0,INVALID,163.67,VALID,0,VALID,24.7743,VALID,90,VALID,0.213672,
2011-05-29, 02:24:04,VALID,1005.13,VALID,0,INVALID,163.662,VALID,0,VALID,24.7529,VALID,90,VALID,0.35625,
2011-05-29, 02:25:04,VALID,1005.16,VALID,0,INVALID,163.685,VALID,0,VALID,24.7335,VALID,90,VALID,0.473047,
2011-05-29, 02:26:04,VALID,1005.14,VALID,0,INVALID,163.655,VALID,0,VALID,24.714,VALID,92,VALID,0.712891,
2011-05-29, 02:27:04,VALID,1005.14,VALID,0,INVALID,163.678,VALID,0,VALID,24.7529,VALID,92,VALID,0.558984,
2011-05-29, 02:28:04,VALID,1005.14,VALID,0,INVALID,163.685,VALID,0,VALID,24.7335,VALID,93,VALID,0.542969,
2011-05-29, 02:29:04,VALID,1005.12,VALID,0,INVALID,163.67,VALID,0.100563,VALID,24.7316,VALID,93,VALID,0.105859,
2011-05-29, 02:30:04,VALID,1005.11,VALID,0,INVALID,163.662,VALID,0,VALID,24.7529,VALID,71,VALID,0.332422,
2011-05-29, 02:31:04,VALID,1005.12,VALID,0,INVALID,163.693,VALID,0.100563,VALID,24.7724,VALID,71,VALID,0.191016,
2011-05-29, 02:32:04,VALID,1005.11,VALID,0,INVALID,163.685,VALID,0,VALID,24.7335,VALID,71,VALID,0.0714844,
2011-05-29, 02:33:04,VALID,1005.07,VALID,0,INVALID,163.685,VALID,0.100563,VALID,24.7316,VALID,71,VALID,0.0828125,
2011-05-29, 02:34:04,VALID,1005.05,VALID,0,INVALID,163.693,VALID,0,VALID,24.7121,VALID,71,VALID,0,
2011-05-29, 02:35:04,VALID,1005.03,VALID,0,INVALID,163.685,VALID,0.100563,VALID,24.6926,VALID,71,VALID,0.0449219,
2011-05-29, 02:36:04,VALID,1005.01,VALID,0,INVALID,163.685,VALID,0.100563,VALID,24.714,VALID,71,VALID,0.0621094,
2011-05-29, 02:37:04,VALID,1004.98,VALID,0,INVALID,163.685,VALID,0.100563,VALID,24.714,VALID,71,VALID,0.0183594,
2011-05-29, 02:38:04,VALID,1004.96,VALID,0,INVALID,163.693,VALID,0,VALID,24.6732,VALID,71,VALID,0.222656,
2011-05-29, 02:39:04,VALID,1004.93,VALID,0,INVALID,163.67,VALID,0,VALID,24.6945,VALID,71,VALID,0.114063,
2011-05-29, 02:40:04,VALID,1004.92,VALID,0,INVALID,163.693,VALID,0.100563,VALID,24.6945,VALID,71,VALID,0.203516,
2011-05-29, 02:41:04,VALID,1004.91,VALID,0,INVALID,163.655,VALID,0.100563,VALID,24.7335,VALID,71,VALID,0,
2011-05-29, 02:42:04,VALID,1004.92,VALID,0,INVALID,163.662,VALID,0,VALID,24.714,VALID,71,VALID,0.0886719,
2011-05-29, 02:43:04,VALID,1004.91,VALID,0,INVALID,163.693,VALID,0,VALID,24.6945,VALID,71,VALID,0.0363281,
2011-05-29, 02:44:04,VALID,1004.88,VALID,0,INVALID,163.678,VALID,0.100563,VALID,24.6926,VALID,71,VALID,0,
2011-05-29, 02:45:04,VALID,1004.89,VALID,0,INVALID,163.685,VALID,0,VALID,24.714,VALID,71,VALID,0.0304688,
2011-05-29, 02:46:04,VALID,1004.85,VALID,0,INVALID,163.701,VALID,0,VALID,24.714,VALID,71,VALID,0,
2011-05-29, 02:47:04,VALID,1004.87,VALID,0,INVALID,163.693,VALID,0,VALID,24.714,VALID,71,VALID,0,
2011-05-29, 02:48:04,VALID,1004.81,VALID,0,INVALID,163.662,VALID,0,VALID,24.6926,VALID,71,VALID,0.374609,
2011-05-29, 02:49:04,VALID,1004.82,VALID,0,INVALID,163.685,VALID,0,VALID,24.7335,VALID,71,VALID,0.373437,
2011-05-29, 02:50:04,VALID,1004.8,VALID,0,INVALID,163.685,VALID,0,VALID,24.7335,VALID,71,VALID,0.244141,
2011-05-29, 02:51:04,VALID,1004.76,VALID,0,INVALID,163.678,VALID,0,VALID,24.7529,VALID,71,VALID,0.208203,
2011-05-29, 02:52:04,VALID,1004.74,VALID,0,INVALID,163.701,VALID,0,VALID,24.7529,VALID,71,VALID,0.0128906,
2011-05-29, 02:53:04,VALID,1004.71,VALID,0,INVALID,163.647,VALID,0.100563,VALID,24.7529,VALID,71,VALID,0,
2011-05-29, 02:54:04,VALID,1004.68,VALID,0,INVALID,163.693,VALID,0.100563,VALID,24.7316,VALID,71,VALID,0,
2011-05-29, 02:55:04,VALID,1004.66,VALID,0,INVALID,163.678,VALID,0,VALID,24.7316,VALID,71,VALID,0,
2011-05-29, 02:56:04,VALID,1004.63,VALID,0,INVALID,163.678,VALID,0.100563,VALID,24.7529,VALID,71,VALID,0,
2011-05-29, 02:57:04,VALID,1004.61,VALID,0,INVALID,163.701,VALID,0,VALID,24.7121,VALID,71,VALID,0.35625,
2011-05-29, 02:58:04,VALID,1004.59,VALID,0,INVALID,163.693,VALID,0,VALID,24.714,VALID,71,VALID,0.35625,
2011-05-29, 02:59:04,VALID,1004.6,VALID,0,INVALID,163.693,VALID,0,VALID,24.6926,VALID,71,VALID,0.180469,
2011-05-29, 03:00:04,VALID,1004.6,VALID,0,INVALID,163.678,VALID,0,VALID,24.714,VALID,71,VALID,0.0410156,
2011-05-29, 03:01:04,VALID,1004.57,VALID,0,INVALID,163.701,VALID,0,VALID,24.714,VALID,71,VALID,0,
2011-05-29, 03:02:05,VALID,1004.55,VALID,0,INVALID,163.662,VALID,0,VALID,24.6926,VALID,71,VALID,0.0640625,
2011-05-29, 03:03:05,VALID,1004.53,VALID,0,INVALID,163.67,VALID,0.100563,VALID,24.6945,VALID,71,VALID,0,
2011-05-29, 03:04:05,VALID,1004.47,VALID,0,INVALID,163.67,VALID,0.100563,VALID,24.675,VALID,71,VALID,0,
2011-05-29, 03:05:05,VALID,1004.49,VALID,0,INVALID,163.701,VALID,0,VALID,24.6945,VALID,71,VALID,0.0257812,
2011-05-29, 03:06:05,VALID,1004.45,VALID,0,INVALID,163.716,VALID,0.100563,VALID,24.6732,VALID,71,VALID,0.145703,
2011-05-29, 03:07:05,VALID,1004.43,VALID,0,INVALID,163.67,VALID,0,VALID,24.714,VALID,71,VALID,0.422266,
2011-05-29, 03:08:05,VALID,1004.41,VALID,0,INVALID,163.67,VALID,0.100563,VALID,24.675,VALID,71,VALID,0.389062,
2011-05-29, 03:09:05,VALID,1004.41,VALID,0,INVALID,163.701,VALID,0.100563,VALID,24.6537,VALID,38,VALID,0.533594,
2011-05-29, 03:10:05,VALID,1004.42,VALID,0,INVALID,163.693,VALID,0,VALID,24.6342,VALID,21,VALID,0.507422,
2011-05-29, 03:11:05,VALID,1004.43,VALID,0,INVALID,163.701,VALID,0.100563,VALID,24.6361,VALID,13,VALID,0.658203,
2011-05-29, 03:12:05,VALID,1004.42,VALID,0,INVALID,163.693,VALID,0,VALID,24.5953,VALID,13,VALID,0.505078,
2011-05-29, 03:13:05,VALID,1004.42,VALID,0,INVALID,163.701,VALID,0.100563,VALID,24.6166,VALID,13,VALID,0.5125,
2011-05-29, 03:14:05,VALID,1004.42,VALID,0,INVALID,163.678,VALID,0.100563,VALID,24.6166,VALID,13,VALID,0.497656,
2011-05-29, 03:15:05,VALID,1004.39,VALID,0,INVALID,163.716,VALID,0,VALID,24.6166,VALID,13,VALID,0.573047,
2011-05-29, 03:16:05,VALID,1004.36,VALID,0,INVALID,163.685,VALID,0,VALID,24.5953,VALID,9,VALID,0.703516,
2011-05-29, 03:17:05,VALID,1004.34,VALID,0,INVALID,163.693,VALID,0,VALID,24.5758,VALID,9,VALID,0.739062,
2011-05-29, 03:18:05,VALID,1004.32,VALID,0,INVALID,163.693,VALID,0.100563,VALID,24.5972,VALID,9,VALID,0.583203,
2011-05-29, 03:19:05,VALID,1004.29,VALID,0,INVALID,163.67,VALID,0.100563,VALID,24.5972,VALID,8,VALID,0.733984,
2011-05-29, 03:20:05,VALID,1004.28,VALID,0,INVALID,163.678,VALID,0,VALID,24.5758,VALID,7,VALID,0.602734,
2011-05-29, 03:21:05,VALID,1004.25,VALID,0,INVALID,163.693,VALID,0,VALID,24.5972,VALID,7,VALID,0.578125,
2011-05-29, 03:22:05,VALID,1004.23,VALID,0,INVALID,163.67,VALID,0,VALID,24.5777,VALID,7,VALID,0.403906,
2011-05-29, 03:23:05,VALID,1004.21,VALID,0,INVALID,163.716,VALID,0,VALID,24.5953,VALID,2,VALID,0.636719,
2011-05-29, 03:24:05,VALID,1004.18,VALID,0,INVALID,163.67,VALID,0,VALID,24.6166,VALID,350,VALID,0.620703,
2011-05-29, 03:25:05,VALID,1004.2,VALID,0,INVALID,163.708,VALID,0,VALID,24.6361,VALID,350,VALID,0.367578,
2011-05-29, 03:26:05,VALID,1004.2,VALID,0,INVALID,163.678,VALID,0.100563,VALID,24.6148,VALID,350,VALID,0.401172,
2011-05-29, 03:27:05,VALID,1004.18,VALID,0,INVALID,163.678,VALID,0.100563,VALID,24.6556,VALID,350,VALID,0.328516,
2011-05-29, 03:28:05,VALID,1004.19,VALID,0,INVALID,163.723,VALID,0,VALID,24.6556,VALID,350,VALID,0.474609,
2011-05-29, 03:29:05,VALID,1004.2,VALID,0,INVALID,163.693,VALID,0,VALID,24.6556,VALID,350,VALID,0.40625,
2011-05-29, 03:30:05,VALID,1004.19,VALID,0,INVALID,163.662,VALID,0,VALID,24.6361,VALID,350,VALID,0.228906,
2011-05-29, 03:31:05,VALID,1004.21,VALID,0,INVALID,163.678,VALID,0,VALID,24.6361,VALID,350,VALID,0.177344,
2011-05-29, 03:32:05,VALID,1004.21,VALID,0,INVALID,163.685,VALID,0,VALID,24.6166,VALID,350,VALID,0.200781,
2011-05-29, 03:33:05,VALID,1004.2,VALID,0,INVALID,163.685,VALID,0,VALID,24.6166,VALID,350,VALID,0.00195313,
2011-05-29, 03:34:05,VALID,1004.22,VALID,0,INVALID,163.693,VALID,0,VALID,24.5972,VALID,350,VALID,0.289844,
2011-05-29, 03:35:05,VALID,1004.24,VALID,0,INVALID,163.685,VALID,0,VALID,24.5972,VALID,350,VALID,0.246094,
2011-05-29, 03:36:05,VALID,1004.21,VALID,0,INVALID,163.685,VALID,0,VALID,24.599,VALID,350,VALID,0.383594,
2011-05-29, 03:37:05,VALID,1004.23,VALID,0,INVALID,163.678,VALID,0,VALID,24.5777,VALID,350,VALID,0.40625,
2011-05-29, 03:38:05,VALID,1004.18,VALID,0,INVALID,163.685,VALID,0,VALID,24.5582,VALID,350,VALID,0.252344,
2011-05-29, 03:39:05,VALID,1004.17,VALID,0,INVALID,163.701,VALID,0,VALID,24.5796,VALID,350,VALID,0.411719,
2011-05-29, 03:40:05,VALID,1004.18,VALID,0,INVALID,163.693,VALID,0,VALID,24.5582,VALID,350,VALID,0.421484,
2011-05-29, 03:41:05,VALID,1004.18,VALID,0,INVALID,163.685,VALID,0.100563,VALID,24.5582,VALID,350,VALID,0.397266,
2011-05-29, 03:42:05,VALID,1004.19,VALID,0,INVALID,163.685,VALID,0,VALID,24.5777,VALID,350,VALID,0.283594,